St. James, MN

7:31 AM CDT on June 22, 2017 (GMT -0500)
Saint James Municipal

Weather History for KJYG - February, 2012

Change the Weather History Date:

Saturday, February 11, 2012

  Actual Average Record
Temperature  
Mean Temperature 12 °F -  
Max Temperature 23 °F 26 °F 86 °F (1999)
Min Temperature 0 °F 6 °F -24 °F (1988)
Degree Days  
Heating Degree Days 54    
Moisture  
Dew Point -9 °F    
Average Humidity 46    
Maximum Humidity 72    
Minimum Humidity 22    
Precipitation  
Precipitation 0.00 in - - ()
Sea Level Pressure  
Sea Level Pressure 30.60 in    
Wind  
Wind Speed 15 mph (WNW)    
Max Wind Speed 22 mph    
Max Gust Speed 26 mph    
Visibility 10 miles    
Events      
Averages and records for this station are not official NWS values.
T = Trace of Precipitation, MM = Missing Value Source: NWS Daily Summary

Daily Weather History Graph

Daily Weather History Graph

Search for Another Location

Airport or City:

Trip Planner

Search our weather history database for the weather conditions in past years. The results will help you decide how hot, cold, wet, or windy it might be!

Date:

Astronomy

Feb. 11, 2012 Rise Set
Actual Time 7:23 AM CST 5:41 PM CST
Civil Twilight 6:53 AM CST 6:11 PM CST
Nautical Twilight 6:19 AM CST 6:45 PM CST
Astronomical Twilight 5:46 AM CST 7:19 PM CST
Moon 10:44 PM CST (2/11) 8:54 AM CST (2/11)
Length of Visible Light 11h 18m
Length of Day
10h 18m
Waning Gibbous, 82% of the Moon is Illuminated
Feb 11
Waning Gibbous
Feb 14
Last Quarter
Feb 21
New
Feb 29
First Quarter
Mar 8
Full

Hourly Weather History & Observations

Time (CST) Temp. Windchill Dew Point Humidity Pressure Visibility Wind Dir Wind Speed Gust Speed Precip Events Conditions
12:15 AM 3.2 °F -15.9 °F -7.6 °F 61% 30.60 in 10.0 mi WNW 16.1 mph - N/A   Clear
12:35 AM 3.2 °F -16.5 °F -7.6 °F 61% 30.60 in 10.0 mi WNW 17.3 mph - N/A   Clear
12:55 AM 1.4 °F -18.2 °F -7.6 °F 66% 30.60 in 10.0 mi WNW 16.1 mph - N/A   Clear
1:15 AM 1.4 °F -18.2 °F -7.6 °F 66% 30.60 in 10.0 mi WNW 16.1 mph - N/A   Clear
1:35 AM 1.4 °F -17.6 °F -7.6 °F 66% 30.60 in 10.0 mi WNW 15.0 mph - N/A   Clear
1:54 AM 1.4 °F -18.8 °F -7.6 °F 66% 30.60 in 10.0 mi WNW 17.3 mph - N/A   Clear
2:15 AM 1.4 °F -17.6 °F -7.6 °F 66% 30.60 in 10.0 mi WNW 15.0 mph - N/A   Clear
2:35 AM 1.4 °F -16.9 °F -9.4 °F 61% 30.61 in 10.0 mi WNW 13.8 mph - N/A   Clear
2:53 AM 1.4 °F -16.1 °F -9.4 °F 61% 30.60 in 10.0 mi WNW 12.7 mph - N/A   Clear
3:15 AM 1.4 °F -16.1 °F -9.4 °F 61% 30.60 in 10.0 mi WNW 12.7 mph - N/A   Clear
3:35 AM 1.4 °F -16.9 °F -9.4 °F 61% 30.60 in 10.0 mi WNW 13.8 mph 18.4 mph N/A   Clear
3:55 AM 1.4 °F -16.9 °F -9.4 °F 61% 30.61 in 10.0 mi WNW 13.8 mph - N/A   Clear
4:15 AM 1.4 °F -16.1 °F -9.4 °F 61% 30.61 in 10.0 mi WNW 12.7 mph - N/A   Clear
4:35 AM 1.4 °F -17.6 °F -9.4 °F 61% 30.61 in 10.0 mi WNW 15.0 mph - N/A   Clear
4:54 AM 1.4 °F -16.9 °F -9.4 °F 61% 30.62 in 10.0 mi WNW 13.8 mph - N/A   Clear
5:15 AM 1.4 °F -17.6 °F -9.4 °F 61% 30.62 in 10.0 mi WNW 15.0 mph 20.7 mph N/A   Clear
5:34 AM -0.4 °F -19.2 °F -9.4 °F 66% 30.62 in - WNW 13.8 mph - N/A   Clear
5:54 AM -0.4 °F -19.9 °F -9.4 °F 66% 30.63 in - WNW 15.0 mph - N/A   Clear
6:15 AM -0.4 °F -19.9 °F -7.6 °F 72% 30.64 in - WNW 15.0 mph - N/A   Clear
6:35 AM -0.4 °F -20.5 °F -7.6 °F 72% 30.63 in - WNW 16.1 mph - N/A   Clear
6:54 AM -0.4 °F -19.9 °F -9.4 °F 66% 30.64 in 10.0 mi West 15.0 mph - N/A   Clear
7:15 AM -0.4 °F -18.4 °F -9.4 °F 66% 30.65 in 10.0 mi WNW 12.7 mph 19.6 mph N/A   Clear
7:34 AM -0.4 °F -19.9 °F -7.6 °F 72% 30.66 in 10.0 mi WNW 15.0 mph 18.4 mph N/A   Clear
7:54 AM 1.4 °F -16.9 °F -7.6 °F 66% 30.65 in 10.0 mi WNW 13.8 mph - N/A   Clear
8:15 AM 1.4 °F -18.8 °F -7.6 °F 66% 30.65 in 10.0 mi WNW 17.3 mph 21.9 mph N/A   Clear
8:34 AM 3.2 °F -16.5 °F -7.6 °F 61% 30.66 in 10.0 mi WNW 17.3 mph - N/A   Clear
8:55 AM 5.0 °F -14.2 °F -7.6 °F 56% 30.66 in 10.0 mi WNW 17.3 mph 23.0 mph N/A   Clear
9:15 AM 6.8 °F -11.3 °F -7.6 °F 52% 30.67 in 10.0 mi NW 16.1 mph - N/A   Clear
9:34 AM 8.6 °F -8.9 °F -5.8 °F 52% 30.67 in 10.0 mi NW 16.1 mph 21.9 mph N/A   Clear
9:55 AM 10.4 °F -8.2 °F -5.8 °F 48% 30.66 in 10.0 mi WNW 19.6 mph 25.3 mph N/A   Clear
10:15 AM 10.4 °F -7.2 °F -7.6 °F 44% 30.66 in 10.0 mi WNW 17.3 mph 26.5 mph N/A   Clear
10:35 AM 12.2 °F -5.8 °F -7.6 °F 41% 30.66 in 10.0 mi NW 19.6 mph 25.3 mph N/A   Clear
10:54 AM 12.2 °F -5.8 °F -9.4 °F 38% 30.67 in 10.0 mi NW 19.6 mph - N/A   Clear
11:15 AM 12.2 °F -5.8 °F -11.2 °F 34% 30.67 in 10.0 mi WNW 19.6 mph 24.2 mph N/A   Clear
11:35 AM 15.8 °F 0.3 °F -11.2 °F 30% 30.66 in 10.0 mi WNW 16.1 mph 23.0 mph N/A   Clear
11:55 AM 15.8 °F -0.2 °F -11.2 °F 30% 30.65 in 10.0 mi WNW 17.3 mph 23.0 mph N/A   Clear
12:15 PM 17.6 °F 1.7 °F -11.2 °F 27% 30.64 in 10.0 mi WNW 18.4 mph 26.5 mph N/A   Clear
12:35 PM 17.6 °F 1.7 °F -11.2 °F 27% 30.62 in 10.0 mi WNW 18.4 mph 26.5 mph N/A   Clear
12:55 PM 19.4 °F 5.0 °F -11.2 °F 25% 30.61 in 10.0 mi WNW 16.1 mph - N/A   Clear
1:15 PM 19.4 °F 2.8 °F -11.2 °F 25% 30.61 in 10.0 mi West 21.9 mph 26.5 mph N/A   Clear
1:35 PM 19.4 °F 3.2 °F -9.4 °F 28% 30.60 in 10.0 mi WNW 20.7 mph 25.3 mph N/A   Clear
1:55 PM 21.2 °F 6.0 °F -9.4 °F 26% 30.59 in 10.0 mi WNW 19.6 mph 26.5 mph N/A   Clear
2:15 PM 21.2 °F 6.0 °F -9.4 °F 26% 30.59 in 10.0 mi WNW 19.6 mph 26.5 mph N/A   Clear
2:35 PM 21.2 °F 6.0 °F -11.2 °F 24% 30.58 in 10.0 mi WNW 19.6 mph 26.5 mph N/A   Clear
2:55 PM 21.2 °F 6.0 °F -11.2 °F 24% 30.58 in 10.0 mi West 19.6 mph - N/A   Clear
3:15 PM 23.0 °F 8.7 °F -11.2 °F 22% 30.58 in 10.0 mi West 18.4 mph 25.3 mph N/A   Clear
3:34 PM 23.0 °F 8.3 °F -9.4 °F 24% 30.57 in 10.0 mi WNW 19.6 mph 23.0 mph N/A   Clear
3:55 PM 23.0 °F 8.0 °F -11.2 °F 22% 30.57 in 10.0 mi WNW 20.7 mph - N/A   Clear
4:15 PM 23.0 °F 9.2 °F -11.2 °F 22% 30.57 in 10.0 mi WNW 17.3 mph 25.3 mph N/A   Clear
4:35 PM 23.0 °F 8.3 °F -11.2 °F 22% 30.57 in 10.0 mi WNW 19.6 mph 23.0 mph N/A   Clear
4:54 PM 21.2 °F 6.8 °F -11.2 °F 24% 30.57 in 10.0 mi WNW 17.3 mph - N/A   Clear
5:15 PM 21.2 °F 8.3 °F -9.4 °F 26% 30.57 in 10.0 mi WNW 13.8 mph - N/A   Clear
5:35 PM 21.2 °F 8.3 °F -9.4 °F 26% 30.57 in 10.0 mi WNW 13.8 mph - N/A   Clear
5:54 PM 19.4 °F 7.9 °F -7.6 °F 30% 30.56 in 10.0 mi WNW 10.4 mph - N/A   Clear
6:15 PM 17.6 °F 7.3 °F -7.6 °F 32% 30.56 in 10.0 mi WNW 8.1 mph - N/A   Clear
6:35 PM 15.8 °F 5.1 °F -5.8 °F 38% 30.56 in 10.0 mi WNW 8.1 mph - N/A   Clear
6:54 PM 15.8 °F 5.1 °F -5.8 °F 38% 30.55 in 10.0 mi WNW 8.1 mph - N/A   Clear
7:15 PM 15.8 °F 5.1 °F -5.8 °F 38% 30.55 in 10.0 mi West 8.1 mph - N/A   Clear
7:35 PM 15.8 °F 5.1 °F -5.8 °F 38% 30.55 in 10.0 mi West 8.1 mph - N/A   Clear
7:54 PM 12.2 °F 0.7 °F -4.0 °F 48% 30.55 in 10.0 mi West 8.1 mph - N/A   Clear
8:15 PM 12.2 °F 0.7 °F -4.0 °F 48% 30.56 in 10.0 mi West 8.1 mph - N/A   Clear
8:35 PM 12.2 °F 1.7 °F -4.0 °F 48% 30.56 in 10.0 mi West 6.9 mph - N/A   Clear
8:55 PM 10.4 °F -2.4 °F -4.0 °F 52% 30.56 in 10.0 mi West 9.2 mph - N/A   Clear
9:14 PM 12.2 °F 0.7 °F -4.0 °F 48% 30.56 in 10.0 mi West 8.1 mph - N/A   Clear
9:35 PM 12.2 °F -0.2 °F -4.0 °F 48% 30.55 in 10.0 mi West 9.2 mph - N/A   Clear
9:55 PM 10.4 °F -2.4 °F -4.0 °F 52% 30.55 in 10.0 mi West 9.2 mph - N/A   Clear
10:15 PM 10.4 °F -1.5 °F -2.2 °F 57% 30.55 in 10.0 mi West 8.1 mph - N/A   Clear
10:35 PM 10.4 °F -2.4 °F -2.2 °F 57% 30.55 in 10.0 mi West 9.2 mph - N/A   Clear
10:55 PM 10.4 °F -2.4 °F -2.2 °F 57% 30.53 in 10.0 mi West 9.2 mph - N/A   Clear
11:14 PM 10.4 °F -1.5 °F -2.2 °F 57% 30.53 in 10.0 mi West 8.1 mph - N/A   Clear
11:34 PM 8.6 °F -2.6 °F -2.2 °F 62% 30.52 in - West 6.9 mph - N/A   Clear
11:55 PM 10.4 °F -0.4 °F -2.2 °F 57% 30.52 in 10.0 mi West 6.9 mph - N/A   Clear